• In Hungary
  • List of Countries
  • For 7 days
  • Water Temperature
  • Satellite Maps
  • Weather Map
  • News
  • Weather Widgets
  • user-avatar
    Login

    Hourly Weather Azeta

    Today, 17 October, Wednesday

    Time Temperature Precipitation Wind Pressure Humidity
    00:00 +10°C° 0 mm 2 mps 756 mmHg 88%
    01:00 +9°C° 0 mm 2 mps 756 mmHg 89%
    02:00 +10°C° 0 mm 1 mps 756 mmHg 89%
    03:00 +10°C° 0 mm 1 mps 756 mmHg 90%
    04:00 +10°C° 0 mm 1 mps 756 mmHg 90%
    05:00 +8°C° 0 mm 2 mps 756 mmHg 90%
    06:00 +9°C° 0 mm 2 mps 756 mmHg 89%
    07:00 +9°C° 0 mm 2 mps 756 mmHg 88%
    08:00 +9°C° 0 mm 2 mps 756 mmHg 87%
    09:00 +12°C° 0 mm 2 mps 756 mmHg 80%
    10:00 +14°C° 0 mm 2 mps 756 mmHg 73%
    11:00 +15°C° 0 mm 2 mps 756 mmHg 66%
    12:00 +16°C° 0 mm 2 mps 756 mmHg 63%
    13:00 +17°C° 0 mm 2 mps 756 mmHg 61%
    14:00 +18°C° 0 mm 2 mps 756 mmHg 58%
    15:00 +16°C° 0 mm 2 mps 755 mmHg 64%
    16:00 +15°C° 0 mm 2 mps 755 mmHg 70%
    17:00 +14°C° 0 mm 1 mps 755 mmHg 76%
    18:00 +13°C° 0 mm 2 mps 755 mmHg 79%
    19:00 +12°C° 0 mm 2 mps 755 mmHg 83%
    20:00 +12°C° 0 mm 2 mps 755 mmHg 86%
    21:00 +10°C° 0 mm 2 mps 755 mmHg 87%
    22:00 +10°C° 0 mm 2 mps 755 mmHg 88%
    23:00 +9°C° 0 mm 2 mps 755 mmHg 89%

    Tomorrow, 18 October, Thursday

    Time Temperature Precipitation Wind Pressure Humidity
    00:00 +9°C° 0 mm 2 mps 755 mmHg 90%
    01:00 +9°C° 0 mm 2 mps 755 mmHg 90%
    02:00 +9°C° 0 mm 2 mps 755 mmHg 90%
    03:00 +8°C° 0 mm 2 mps 755 mmHg 90%
    04:00 +9°C° 0 mm 1 mps 755 mmHg 91%
    05:00 +9°C° 0 mm 1 mps 755 mmHg 91%
    06:00 +9°C° 0 mm 1 mps 754 mmHg 89%
    07:00 +9°C° 0 mm 1 mps 754 mmHg 88%
    08:00 +10°C° 0 mm 1 mps 754 mmHg 87%
    09:00 +12°C° 0 mm 2 mps 754 mmHg 80%
    10:00 +14°C° 0 mm 2 mps 754 mmHg 74%
    11:00 +16°C° 0 mm 2 mps 753 mmHg 67%
    12:00 +17°C° 0 mm 2 mps 753 mmHg 66%
    13:00 +17°C° 0 mm 2 mps 753 mmHg 66%
    14:00 +18°C° 0 mm 3 mps 752 mmHg 65%
    15:00 +17°C° 0 mm 2 mps 752 mmHg 71%
    16:00 +16°C° 0 mm 2 mps 752 mmHg 78%
    17:00 +15°C° 0 mm 2 mps 751 mmHg 85%
    18:00 +14°C° 0 mm 2 mps 751 mmHg 87%
    19:00 +13°C° 0 mm 2 mps 751 mmHg 89%
    20:00 +13°C° 0 mm 2 mps 751 mmHg 92%
    21:00 +12°C° 0 mm 2 mps 751 mmHg 92%
    22:00 +12°C° 0 mm 2 mps 751 mmHg 93%
    23:00 +10°C° 0 mm 2 mps 751 mmHg 93%

    Day after tomorrow, 19 October, Friday

    Time Temperature Precipitation Wind Pressure Humidity
    00:00 +10°C° 0 mm 2 mps 751 mmHg 94%
    01:00 +10°C° 0 mm 2 mps 751 mmHg 94%
    02:00 +9°C° 0 mm 2 mps 751 mmHg 94%
    03:00 +10°C° 0 mm 1 mps 751 mmHg 94%
    04:00 +10°C° 0 mm 1 mps 751 mmHg 94%
    05:00 +9°C° 0 mm 1 mps 751 mmHg 94%
    06:00 +10°C° 0 mm 1 mps 751 mmHg 94%
    07:00 +9°C° 0 mm 2 mps 752 mmHg 93%
    08:00 +9°C° 0 mm 2 mps 752 mmHg 93%
    09:00 +10°C° 0 mm 2 mps 752 mmHg 89%
    10:00 +12°C° 0 mm 2 mps 753 mmHg 86%
    11:00 +12°C° 0 mm 3 mps 753 mmHg 82%
    12:00 +12°C° 0 mm 3 mps 753 mmHg 80%
    13:00 +11°C° 0 mm 3 mps 753 mmHg 78%
    14:00 +11°C° 0 mm 3 mps 753 mmHg 76%
    15:00 +11°C° 0 mm 3 mps 753 mmHg 76%
    16:00 +10°C° 0 mm 2 mps 753 mmHg 76%
    17:00 +9°C° 0 mm 2 mps 754 mmHg 76%
    18:00 +8°C° 0 mm 2 mps 754 mmHg 78%
    19:00 +7°C° 0 mm 2 mps 754 mmHg 81%
    20:00 +6°C° 0 mm 2 mps 755 mmHg 84%
    21:00 +6°C° 0 mm 2 mps 755 mmHg 84%
    22:00 +5°C° 0 mm 2 mps 755 mmHg 85%
    23:00 +5°C° 0 mm 2 mps 755 mmHg 86%

    20 October, Saturday

    Time Temperature Precipitation Wind Pressure Humidity
    00:00 +6°C° 0 mm 1 mps 755 mmHg 87%
    01:00 +5°C° 0 mm 1 mps 756 mmHg 89%
    02:00 +5°C° 0 mm 1 mps 756 mmHg 90%
    03:00 +5°C° 0 mm 1 mps 756 mmHg 91%
    04:00 +4°C° 0 mm 1 mps 756 mmHg 92%
    05:00 +4°C° 0 mm 1 mps 756 mmHg 93%
    06:00 +4°C° 0 mm 1 mps 756 mmHg 93%
    07:00 +4°C° 0 mm 1 mps 756 mmHg 92%
    08:00 +5°C° 0 mm 1 mps 757 mmHg 92%
    09:00 +6°C° 0 mm 1 mps 757 mmHg 84%
    10:00 +8°C° 0 mm 1 mps 757 mmHg 77%
    11:00 +9°C° 0 mm 1 mps 757 mmHg 70%
    12:00 +10°C° 0 mm 1 mps 757 mmHg 66%
    13:00 +10°C° 0 mm 1 mps 757 mmHg 63%
    14:00 +11°C° 0 mm 1 mps 756 mmHg 59%
    15:00 +10°C° 0 mm 1 mps 756 mmHg 64%
    16:00 +8°C° 0 mm 1 mps 756 mmHg 69%
    17:00 +7°C° 0 mm 1 mps 756 mmHg 74%
    18:00 +7°C° 0 mm 1 mps 756 mmHg 76%
    19:00 +6°C° 0 mm 1 mps 756 mmHg 78%
    20:00 +6°C° 0 mm 1 mps 756 mmHg 80%
    21:00 +6°C° 0 mm 1 mps 756 mmHg 81%
    22:00 +5°C° 0 mm 1 mps 756 mmHg 81%
    23:00 +5°C° 0 mm 1 mps 756 mmHg 81%

    21 October, Sunday

    Time Temperature Precipitation Wind Pressure Humidity
    00:00 +5°C° 0 mm 1 mps 756 mmHg 83%
    01:00 +5°C° 0 mm 1 mps 756 mmHg 84%
    02:00 +5°C° 0 mm 1 mps 756 mmHg 85%
    03:00 +4°C° 0 mm 1 mps 756 mmHg 86%
    04:00 +4°C° 0 mm 1 mps 756 mmHg 88%
    05:00 +2°C° 0 mm 0 mps 756 mmHg 89%
    06:00 +3°C° 0 mm 0 mps 757 mmHg 88%
    07:00 +3°C° 0 mm 0 mps 757 mmHg 87%
    08:00 +3°C° 0 mm 0 mps 757 mmHg 85%
    09:00 +5°C° 0 mm 0 mps 757 mmHg 78%
    10:00 +7°C° 0 mm 0 mps 757 mmHg 71%
    11:00 +8°C° 0 mm 0 mps 757 mmHg 63%
    12:00 +9°C° 0 mm 0 mps 757 mmHg 61%
    13:00 +10°C° 0 mm 1 mps 757 mmHg 58%
    14:00 +11°C° 0 mm 1 mps 757 mmHg 55%
    15:00 +10°C° 0 mm 1 mps 757 mmHg 61%
    16:00 +8°C° 0 mm 1 mps 757 mmHg 66%
    17:00 +7°C° 0 mm 1 mps 757 mmHg 71%
    18:00 +7°C° 0 mm 1 mps 757 mmHg 74%
    19:00 +6°C° 0 mm 1 mps 757 mmHg 76%
    20:00 +6°C° 0 mm 1 mps 757 mmHg 78%
    21:00 +4°C° 0 mm 2 mps 757 mmHg 80%
    22:00 +4°C° 0 mm 2 mps 757 mmHg 82%
    23:00 +4°C° 0 mm 2 mps 757 mmHg 83%

    22 October, Monday

    Time Temperature Precipitation Wind Pressure Humidity
    00:00 +4°C° 0 mm 2 mps 756 mmHg 84%
    01:00 +4°C° 0 mm 2 mps 756 mmHg 86%
    02:00 +2°C° 0 mm 3 mps 756 mmHg 87%
    03:00 +2°C° 0 mm 3 mps 755 mmHg 88%
    04:00 +2°C° 0 mm 3 mps 755 mmHg 90%
    05:00 +2°C° 0 mm 3 mps 755 mmHg 91%
    06:00 +2°C° 0 mm 3 mps 755 mmHg 91%
    07:00 +3°C° 0 mm 4 mps 754 mmHg 90%
    08:00 +3°C° 0 mm 4 mps 754 mmHg 90%
    09:00 +5°C° 0 mm 4 mps 754 mmHg 84%
    10:00 +7°C° 0 mm 5 mps 753 mmHg 79%
    11:00 +8°C° 0 mm 5 mps 753 mmHg 73%
    12:00 +9°C° 0 mm 5 mps 753 mmHg 71%
    13:00 +10°C° 0 mm 6 mps 752 mmHg 70%
    14:00 +10°C° 0 mm 6 mps 752 mmHg 68%
    15:00 +10°C° 0.1 mm 5 mps 752 mmHg 73%
    16:00 +9°C° 0.1 mm 5 mps 752 mmHg 78%
    17:00 +8°C° 0.1 mm 4 mps 751 mmHg 83%
    18:00 +7°C° 0 mm 4 mps 752 mmHg 85%
    19:00 +8°C° 0 mm 3 mps 752 mmHg 87%
    20:00 +7°C° 0 mm 3 mps 752 mmHg 89%
    21:00 +5°C° 0 mm 3 mps 752 mmHg 88%
    22:00 +5°C° 0 mm 2 mps 753 mmHg 88%
    23:00 +4°C° 0 mm 2 mps 753 mmHg 88%
    Show more